Flag for Canada Weather past 2 weeks in Prince George, British Columbia, Canada

Now
72 °F

Sunny.


Feels Like: 77 °F
Forecast: 54 / 82 °F
Wind: 5 mph from Northwest

Location: Prince George

Current Time: Jul 31, 2014 at 11:37:10 AM

Latest Report: Jul 31, 2014 at 11:00 AM


Visibility: 9 mi

Pressure: 30.18 "Hg

Humidity: 41%

Dew point: 46 °F

Location of Prince GeorgeLocation

Historic Weather in Prince George — Graph

°F

Prince George temperature yesterday

Maximum temperature yesterday: 79 °F (at 4:00 PM)
Minimum temperature yesterday: 50 °F (at 5:00 AM)
Average temperature yesterday: 68 °F

Past Weeks' High & Low Weather Summary

 TemperatureHumidityPressure
High86 °F (Jul 16, 4:00 PM)100% (Jul 19, 2:00 AM)30.25 "Hg (Jul 19, 2:00 AM)
Low45 °F (Jul 26, 4:00 AM)17% (Jul 16, 4:00 PM)29.71 "Hg (Jul 19, 12:00 PM)
Average62 °F66%29.97 "Hg
* Reported Jul 16 10:00 AM — Jul 31 10:00 AM, Prince George, Weather by CustomWeather, © 2014

Note: Actual official high and low records may vary slightly from our data, if they occured in-between our weather recording intervals... More about our weather records

Advertising

Prince George weather history for previous 24 hours

 ConditionsComfort  
Time TempWeatherWind HumidityBarometerVisibility
10:00 AM
Jul 31
66 °FSunny.5 mph49%30.18 "Hg9 mi
9:00 AM63 °FSunny.6 mph64%30.19 "Hg9 mi
8:00 AM57 °FSunny.5 mph77%30.19 "Hg9 mi
7:00 AM50 °FSunny.2 mph94%30.19 "Hg9 mi
6:00 AM50 °FClear.No wind94%30.18 "Hg9 mi
5:00 AM50 °FClear.2 mph94%30.17 "Hg9 mi
4:00 AM54 °FPassing clouds.2 mph94%30.17 "Hg9 mi
3:04 AM54 °FFog.3 mph100%30.16 "Hg2 mi
3:00 AM54 °FFog.2 mph94%30.16 "Hg1 mi
2:00 AM57 °FPassing clouds.3 mph94%30.15 "Hg9 mi
1:00 AM57 °FPassing clouds.3 mph94%30.14 "Hg9 mi
12:00 AM57 °FPassing clouds.2 mph94%30.14 "Hg9 mi
11:00 PM
Jul 30
61 °FPassing clouds.3 mph83%30.12 "Hg9 mi
10:00 PM68 °FBroken clouds.20 mph56%30.14 "Hg9 mi
9:00 PM72 °FCloudy.6 mph47%30.09 "Hg9 mi
8:00 PM73 °FPassing clouds.5 mph44%30.09 "Hg9 mi
7:00 PM75 °FSunny.5 mph44%30.10 "Hg9 mi
6:00 PM75 °FPartly sunny.6 mph41%30.10 "Hg9 mi
5:00 PM79 °FSunny.5 mph32%30.11 "Hg9 mi
4:00 PM79 °FPassing clouds.8 mph32%30.11 "Hg9 mi
3:00 PM77 °FSunny.6 mph34%30.12 "Hg9 mi
2:00 PM77 °FSunny.7 mph34%30.14 "Hg9 mi
1:00 PM75 °FSunny.8 mph36%30.14 "Hg9 mi
12:03 PM73 °FSunny.10 mph41%30.15 "Hg9 mi
11:53 AM73 °FSunny.7 mph41%30.15 "Hg4 mi
11:00 AM70 °FSunny.6 mph50%30.16 "Hg9 mi
Weather by CustomWeather, © 2014

See weather overviewHow to use our weather pages